Time,TemperatureF,DewpointF,PressureIn,WindDirection,WindDirectionDegrees,WindSpeedMPH,WindSpeedGustMPH,Humidity,HourlyPrecipIn,Conditions,Clouds,dailyrainin,SolarRadiationWatts/m^2,SoftwareType,DateUTC
2013-02-21 00:04:00,41.1,39.2,30.03,South,175,1.0,4.0,93,0.00,,,0.00,0,Wunderground v.1.15,2013-02-21 08:04:00,
2013-02-21 00:09:00,41.1,39.5,30.03,South,175,1.0,4.0,94,0.00,,,0.00,0,Wunderground v.1.15,2013-02-21 08:09:00,
2013-02-21 00:14:00,41.0,39.4,30.04,South,174,1.0,4.0,94,0.00,,,0.00,0,Wunderground v.1.15,2013-02-21 08:14:00,
2013-02-21 00:19:00,41.0,39.4,30.04,South,174,0.0,4.0,94,0.00,,,0.00,0,Wunderground v.1.15,2013-02-21 08:19:00,
2013-02-21 00:24:00,41.0,39.4,30.04,South,174,0.0,2.0,94,0.00,,,0.00,0,Wunderground v.1.15,2013-02-21 08:24:00,
2013-02-21 00:29:00,41.0,39.4,30.04,South,174,1.0,2.0,94,0.00,,,0.00,0,Wunderground v.1.15,2013-02-21 08:29:00,
2013-02-21 00:34:00,41.0,39.4,30.04,South,174,0.0,1.0,94,0.00,,,0.00,0,Wunderground v.1.15,2013-02-21 08:34:00,
2013-02-21 00:39:00,41.0,39.4,30.04,South,174,0.0,1.0,94,0.00,,,0.00,0,Wunderground v.1.15,2013-02-21 08:39:00,
2013-02-21 00:44:00,41.0,39.4,30.04,South,174,0.0,2.0,94,0.00,,,0.00,0,Wunderground v.1.15,2013-02-21 08:44:00,
2013-02-21 00:49:00,41.0,39.4,30.05,South,174,0.0,2.0,94,0.00,,,0.00,0,Wunderground v.1.15,2013-02-21 08:49:00,
2013-02-21 00:54:00,41.0,39.4,30.05,South,174,0.0,2.0,94,0.00,,,0.00,0,Wunderground v.1.15,2013-02-21 08:54:00,
2013-02-21 00:59:00,41.0,39.4,30.05,South,174,0.0,2.0,94,0.00,,,0.00,0,Wunderground v.1.15,2013-02-21 08:59:00,
2013-02-21 01:04:00,41.0,39.4,30.05,South,174,0.0,0.0,94,0.00,,,0.00,0,Wunderground v.1.15,2013-02-21 09:04:00,
2013-02-21 01:09:00,41.0,39.4,30.06,South,174,0.0,1.0,94,0.00,,,0.00,0,Wunderground v.1.15,2013-02-21 09:09:00,
2013-02-21 01:14:00,41.0,39.4,30.06,South,174,0.0,0.0,94,0.00,,,0.00,0,Wunderground v.1.15,2013-02-21 09:14:00,
2013-02-21 01:19:00,41.1,39.5,30.06,South,174,0.0,1.0,94,0.00,,,0.00,0,Wunderground v.1.15,2013-02-21 09:19:00,
2013-02-21 01:24:00,41.1,39.5,30.05,South,174,0.0,3.0,94,0.00,,,0.00,0,Wunderground v.1.15,2013-02-21 09:24:00,
2013-02-21 01:29:00,41.1,39.5,30.05,South,174,0.0,3.0,94,0.00,,,0.00,0,Wunderground v.1.15,2013-02-21 09:29:00,
2013-02-21 01:34:00,41.1,39.5,30.05,South,174,0.0,1.0,94,0.00,,,0.00,0,Wunderground v.1.15,2013-02-21 09:34:00,
2013-02-21 01:39:00,41.1,39.5,30.06,SSW,192,1.0,2.0,94,0.00,,,0.00,0,Wunderground v.1.15,2013-02-21 09:39:00,
2013-02-21 01:44:00,41.1,39.5,30.06,SSW,192,0.0,1.0,94,0.00,,,0.00,0,Wunderground v.1.15,2013-02-21 09:44:00,
2013-02-21 01:49:00,41.1,39.5,30.07,SSW,192,0.0,1.0,94,0.00,,,0.01,0,Wunderground v.1.15,2013-02-21 09:49:00,
2013-02-21 01:54:00,41.1,39.5,30.07,South,191,0.0,1.0,94,0.00,,,0.01,0,Wunderground v.1.15,2013-02-21 09:54:00,
2013-02-21 01:59:00,41.1,39.5,30.06,SSW,207,4.0,5.0,94,0.00,,,0.01,0,Wunderground v.1.15,2013-02-21 09:59:00,
2013-02-21 02:04:00,41.1,39.5,30.05,SW,215,1.0,5.0,94,0.04,,,0.02,0,Wunderground v.1.15,2013-02-21 10:04:00,
2013-02-21 02:09:00,41.0,39.4,30.05,SW,217,3.0,5.0,94,0.04,,,0.02,0,Wunderground v.1.15,2013-02-21 10:09:00,
2013-02-21 02:14:00,41.0,39.4,30.05,SW,217,0.0,3.0,94,0.04,,,0.02,0,Wunderground v.1.15,2013-02-21 10:14:00,
2013-02-21 02:19:00,41.0,39.4,30.06,SW,217,0.0,3.0,94,0.05,,,0.03,0,Wunderground v.1.15,2013-02-21 10:19:00,
2013-02-21 02:24:00,41.0,39.4,30.06,SW,223,1.0,4.0,94,0.05,,,0.03,0,Wunderground v.1.15,2013-02-21 10:24:00,
2013-02-21 02:29:00,41.0,39.4,30.06,SW,214,3.0,4.0,94,0.04,,,0.03,0,Wunderground v.1.15,2013-02-21 10:29:00,
2013-02-21 02:34:00,41.0,39.4,30.06,SSW,213,2.0,3.0,94,0.00,,,0.03,0,Wunderground v.1.15,2013-02-21 10:34:00,
2013-02-21 02:39:00,41.0,39.4,30.06,SSW,206,0.0,4.0,94,0.00,,,0.03,0,Wunderground v.1.15,2013-02-21 10:39:00,
2013-02-21 02:44:00,41.0,39.4,30.05,SW,234,3.0,5.0,94,0.00,,,0.03,0,Wunderground v.1.15,2013-02-21 10:44:00,
2013-02-21 02:49:00,40.9,39.0,30.05,SW,218,4.0,7.0,93,0.00,,,0.03,0,Wunderground v.1.15,2013-02-21 10:49:00,
2013-02-21 02:54:00,41.0,39.1,30.05,West,268,5.0,12.0,93,0.00,,,0.03,0,Wunderground v.1.15,2013-02-21 10:54:00,
2013-02-21 02:59:00,41.1,39.2,30.06,WSW,250,4.0,12.0,93,0.00,,,0.03,0,Wunderground v.1.15,2013-02-21 10:59:00,
2013-02-21 03:04:00,41.1,39.2,30.06,SW,232,3.0,6.0,93,0.00,,,0.03,0,Wunderground v.1.15,2013-02-21 11:04:00,
2013-02-21 03:09:00,41.2,39.1,30.06,West,278,6.0,7.0,92,0.00,,,0.03,0,Wunderground v.1.15,2013-02-21 11:09:00,
2013-02-21 03:14:00,41.3,39.2,30.06,WSW,251,5.0,8.0,92,0.00,,,0.03,0,Wunderground v.1.15,2013-02-21 11:14:00,
2013-02-21 03:19:00,41.3,39.2,30.06,West,265,5.0,8.0,92,0.00,,,0.03,0,Wunderground v.1.15,2013-02-21 11:19:00,
2013-02-21 03:24:00,41.5,39.3,30.06,SW,234,6.0,10.0,92,0.00,,,0.03,0,Wunderground v.1.15,2013-02-21 11:24:00,
2013-02-21 03:29:00,41.6,39.4,30.04,WSW,252,7.0,12.0,92,0.00,,,0.03,0,Wunderground v.1.15,2013-02-21 11:29:00,
2013-02-21 03:34:00,41.7,39.5,30.04,West,271,7.0,14.0,92,0.00,,,0.03,0,Wunderground v.1.15,2013-02-21 11:34:00,
2013-02-21 03:39:00,41.8,39.4,30.04,West,269,9.0,14.0,91,0.00,,,0.03,0,Wunderground v.1.15,2013-02-21 11:39:00,
2013-02-21 03:44:00,41.8,39.1,30.04,SW,217,11.0,14.0,90,0.00,,,0.03,0,Wunderground v.1.15,2013-02-21 11:44:00,
2013-02-21 03:49:00,41.9,39.2,30.05,WSW,254,5.0,15.0,90,0.00,,,0.03,0,Wunderground v.1.15,2013-02-21 11:49:00,
2013-02-21 03:54:00,42.0,39.3,30.05,West,265,7.0,11.0,90,0.00,,,0.03,0,Wunderground v.1.15,2013-02-21 11:54:00,
2013-02-21 03:59:00,42.0,39.3,30.05,West,262,5.0,11.0,90,0.00,,,0.03,0,Wunderground v.1.15,2013-02-21 11:59:00,
2013-02-21 04:04:00,42.0,39.3,30.05,West,276,9.0,13.0,90,0.00,,,0.03,0,Wunderground v.1.15,2013-02-21 12:04:00,
2013-02-21 04:09:00,42.1,39.4,30.05,SSW,212,9.0,14.0,90,0.00,,,0.03,0,Wunderground v.1.15,2013-02-21 12:09:00,
2013-02-21 04:14:00,42.1,39.4,30.05,West,263,9.0,12.0,90,0.00,,,0.03,0,Wunderground v.1.15,2013-02-21 12:14:00,
2013-02-21 04:19:00,42.2,39.5,30.04,WSW,254,8.0,12.0,90,0.00,,,0.03,0,Wunderground v.1.15,2013-02-21 12:19:00,
2013-02-21 04:24:00,42.2,39.5,30.04,West,271,8.0,13.0,90,0.00,,,0.03,0,Wunderground v.1.15,2013-02-21 12:24:00,
2013-02-21 04:29:00,42.2,39.5,30.04,WSW,238,9.0,17.0,90,0.00,,,0.03,0,Wunderground v.1.15,2013-02-21 12:29:00,
2013-02-21 04:34:00,42.3,39.3,30.05,SW,234,12.0,14.0,89,0.00,,,0.03,0,Wunderground v.1.15,2013-02-21 12:34:00,
2013-02-21 04:39:00,42.3,39.6,30.05,West,271,6.0,14.0,90,0.00,,,0.03,0,Wunderground v.1.15,2013-02-21 12:39:00,
2013-02-21 04:44:00,42.2,39.2,30.05,West,276,2.0,12.0,89,0.00,,,0.03,0,Wunderground v.1.15,2013-02-21 12:44:00,
2013-02-21 04:49:00,42.2,39.2,30.05,West,260,11.0,16.0,89,0.00,,,0.03,0,Wunderground v.1.15,2013-02-21 12:49:00,
2013-02-21 04:54:00,42.1,39.1,30.05,SW,229,5.0,12.0,89,0.00,,,0.03,0,Wunderground v.1.15,2013-02-21 12:54:00,
2013-02-21 04:59:00,42.1,38.8,30.05,West,279,5.0,14.0,88,0.00,,,0.03,0,Wunderground v.1.15,2013-02-21 12:59:00,
2013-02-21 05:04:00,42.1,38.8,30.05,WSW,249,11.0,13.0,88,0.00,,,0.03,0,Wunderground v.1.15,2013-02-21 13:04:00,
2013-02-21 05:09:00,42.1,38.8,30.05,West,265,4.0,13.0,88,0.00,,,0.03,0,Wunderground v.1.15,2013-02-21 13:09:00,
2013-02-21 05:14:00,42.1,38.8,30.05,WSW,237,8.0,14.0,88,0.00,,,0.03,0,Wunderground v.1.15,2013-02-21 13:14:00,
2013-02-21 05:19:00,42.0,38.7,30.05,WNW,290,8.0,14.0,88,0.00,,,0.03,0,Wunderground v.1.15,2013-02-21 13:19:00,
2013-02-21 05:24:00,42.1,38.8,30.05,West,275,10.0,16.0,88,0.00,,,0.03,0,Wunderground v.1.15,2013-02-21 13:24:00,
2013-02-21 05:29:00,42.2,38.6,30.05,West,269,13.0,18.0,87,0.00,,,0.03,0,Wunderground v.1.15,2013-02-21 13:29:00,
2013-02-21 05:34:00,42.1,38.5,30.05,West,265,9.0,11.0,87,0.00,,,0.03,0,Wunderground v.1.15,2013-02-21 13:34:00,
2013-02-21 05:39:00,42.0,38.4,30.05,NW,307,6.0,12.0,87,0.00,,,0.03,0,Wunderground v.1.15,2013-02-21 13:39:00,
2013-02-21 05:44:00,42.0,38.4,30.05,West,263,8.0,10.0,87,0.00,,,0.03,0,Wunderground v.1.15,2013-02-21 13:44:00,
2013-02-21 05:49:00,42.0,38.7,30.05,West,263,12.0,19.0,88,0.00,,,0.03,0,Wunderground v.1.15,2013-02-21 13:49:00,
2013-02-21 05:54:00,42.1,38.8,30.05,West,273,7.0,16.0,88,0.00,,,0.03,0,Wunderground v.1.15,2013-02-21 13:54:00,
2013-02-21 05:59:00,42.1,38.8,30.05,West,261,7.0,16.0,88,0.00,,,0.03,0,Wunderground v.1.15,2013-02-21 13:59:00,
2013-02-21 06:04:00,42.1,38.8,30.05,West,268,5.0,12.0,88,0.00,,,0.03,0,Wunderground v.1.15,2013-02-21 14:04:00,
2013-02-21 06:09:00,42.2,38.9,30.05,WSW,254,6.0,15.0,88,0.00,,,0.03,0,Wunderground v.1.15,2013-02-21 14:09:00,
2013-02-21 06:14:00,42.2,38.9,30.05,SW,219,10.0,14.0,88,0.00,,,0.03,0,Wunderground v.1.15,2013-02-21 14:14:00,
2013-02-21 06:19:00,42.3,39.0,30.05,West,279,8.0,17.0,88,0.00,,,0.03,0,Wunderground v.1.15,2013-02-21 14:19:00,
2013-02-21 06:24:00,42.3,39.0,30.05,West,269,8.0,12.0,88,0.00,,,0.03,0,Wunderground v.1.15,2013-02-21 14:24:00,
2013-02-21 06:29:00,42.4,39.1,30.05,West,273,5.0,15.0,88,0.00,,,0.03,0,Wunderground v.1.15,2013-02-21 14:29:00,
2013-02-21 06:34:00,42.5,39.2,30.05,SW,229,10.0,17.0,88,0.00,,,0.03,0,Wunderground v.1.15,2013-02-21 14:34:00,
2013-02-21 06:39:00,42.5,38.9,30.05,WNW,290,6.0,17.0,87,0.00,,,0.03,0,Wunderground v.1.15,2013-02-21 14:39:00,
2013-02-21 06:44:00,42.5,38.9,30.05,West,269,11.0,15.0,87,0.00,,,0.03,0,Wunderground v.1.15,2013-02-21 14:44:00,
2013-02-21 06:49:00,42.6,39.0,30.06,WSW,248,13.0,17.0,87,0.00,,,0.03,0,Wunderground v.1.15,2013-02-21 14:49:00,
2013-02-21 06:54:00,42.7,38.8,30.06,West,273,10.0,13.0,86,0.00,,,0.03,0,Wunderground v.1.15,2013-02-21 14:54:00,
2013-02-21 06:59:00,42.7,38.8,30.06,WNW,288,6.0,14.0,86,0.00,,,0.03,0,Wunderground v.1.15,2013-02-21 14:59:00,
2013-02-21 07:04:00,42.7,38.8,30.06,West,266,7.0,11.0,86,0.00,,,0.03,0,Wunderground v.1.15,2013-02-21 15:04:00,
2013-02-21 07:09:00,42.7,38.8,30.06,NW,311,7.0,15.0,86,0.00,,,0.03,0,Wunderground v.1.15,2013-02-21 15:09:00,
2013-02-21 07:14:00,42.7,38.8,30.06,West,261,13.0,16.0,86,0.00,,,0.03,0,Wunderground v.1.15,2013-02-21 15:14:00,
2013-02-21 07:19:00,42.8,39.2,30.06,West,266,3.0,16.0,87,0.00,,,0.03,0,Wunderground v.1.15,2013-02-21 15:19:00,
2013-02-21 07:24:00,42.7,39.1,30.06,WSW,255,6.0,15.0,87,0.00,,,0.03,0,Wunderground v.1.15,2013-02-21 15:24:00,
2013-02-21 07:29:00,42.8,39.2,30.06,WSW,248,6.0,15.0,87,0.00,,,0.03,0,Wunderground v.1.15,2013-02-21 15:29:00,
2013-02-21 07:34:00,42.8,39.2,30.07,West,271,5.0,11.0,87,0.00,,,0.03,0,Wunderground v.1.15,2013-02-21 15:34:00,
2013-02-21 07:39:00,42.8,38.9,30.07,WNW,296,4.0,13.0,86,0.00,,,0.03,0,Wunderground v.1.15,2013-02-21 15:39:00,
2013-02-21 07:44:00,42.8,38.9,30.07,WSW,255,5.0,12.0,86,0.00,,,0.03,5,Wunderground v.1.15,2013-02-21 15:44:00,
2013-02-21 07:49:00,42.8,38.9,30.07,SW,236,5.0,12.0,86,0.00,,,0.03,0,Wunderground v.1.15,2013-02-21 15:49:00,
2013-02-21 07:54:00,42.9,39.0,30.07,West,262,5.0,11.0,86,0.00,,,0.03,5,Wunderground v.1.15,2013-02-21 15:54:00,
2013-02-21 07:59:00,42.9,38.7,30.07,SW,236,8.0,15.0,85,0.00,,,0.03,5,Wunderground v.1.15,2013-02-21 15:59:00,
2013-02-21 08:04:00,43.0,38.8,30.07,West,273,7.0,16.0,85,0.00,,,0.03,9,Wunderground v.1.15,2013-02-21 16:04:00,
2013-02-21 08:09:00,43.0,38.8,30.07,WSW,251,9.0,16.0,85,0.00,,,0.03,21,Wunderground v.1.15,2013-02-21 16:09:00,
2013-02-21 08:14:00,43.0,38.5,30.07,West,275,7.0,17.0,84,0.00,,,0.03,14,Wunderground v.1.15,2013-02-21 16:14:00,
2013-02-21 08:19:00,43.1,38.9,30.07,WNW,286,6.0,17.0,85,0.00,,,0.03,19,Wunderground v.1.15,2013-02-21 16:19:00,
2013-02-21 08:24:00,43.1,38.6,30.07,West,269,5.0,14.0,84,0.00,,,0.03,21,Wunderground v.1.15,2013-02-21 16:24:00,
2013-02-21 08:29:00,43.1,38.3,30.07,WSW,252,10.0,17.0,83,0.00,,,0.03,23,Wunderground v.1.15,2013-02-21 16:29:00,
2013-02-21 08:34:00,43.1,38.3,30.07,West,269,7.0,14.0,83,0.00,,,0.03,32,Wunderground v.1.15,2013-02-21 16:34:00,
2013-02-21 08:39:00,43.1,38.3,30.07,WNW,284,5.0,18.0,83,0.00,,,0.03,26,Wunderground v.1.15,2013-02-21 16:39:00,
2013-02-21 08:44:00,43.1,38.3,30.07,SW,232,11.0,18.0,83,0.00,,,0.03,16,Wunderground v.1.15,2013-02-21 16:44:00,
2013-02-21 08:49:00,43.2,38.4,30.07,WSW,247,8.0,18.0,83,0.00,,,0.03,12,Wunderground v.1.15,2013-02-21 16:49:00,
2013-02-21 08:54:00,43.2,38.4,30.07,WSW,241,12.0,14.0,83,0.00,,,0.03,16,Wunderground v.1.15,2013-02-21 16:54:00,
2013-02-21 08:59:00,43.2,38.4,30.07,West,280,11.0,19.0,83,0.00,,,0.03,23,Wunderground v.1.15,2013-02-21 16:59:00,
2013-02-21 09:04:00,43.1,38.3,30.07,West,269,23.0,25.0,83,0.00,,,0.03,37,Wunderground v.1.15,2013-02-21 17:04:00,
2013-02-21 09:09:00,43.1,38.6,30.07,SW,218,11.0,25.0,84,0.00,,,0.03,42,Wunderground v.1.15,2013-02-21 17:09:00,
2013-02-21 09:14:00,43.1,38.6,30.07,West,271,12.0,15.0,84,0.00,,,0.03,33,Wunderground v.1.15,2013-02-21 17:14:00,
2013-02-21 09:19:00,42.9,38.4,30.07,WSW,249,21.0,24.0,84,0.00,,,0.03,30,Wunderground v.1.15,2013-02-21 17:19:00,
2013-02-21 09:24:00,42.8,38.0,30.07,West,267,9.0,18.0,83,0.00,,,0.03,51,Wunderground v.1.15,2013-02-21 17:24:00,
2013-02-21 09:29:00,42.8,38.3,30.06,WSW,252,10.0,19.0,84,0.00,,,0.03,76,Wunderground v.1.15,2013-02-21 17:29:00,
2013-02-21 09:34:00,42.9,38.1,30.06,WNW,293,5.0,16.0,83,0.00,,,0.03,104,Wunderground v.1.15,2013-02-21 17:34:00,
2013-02-21 09:39:00,42.9,38.1,30.06,WSW,252,13.0,20.0,83,0.00,,,0.03,141,Wunderground v.1.15,2013-02-21 17:39:00,
2013-02-21 09:44:00,43.1,38.3,30.06,West,271,8.0,19.0,83,0.00,,,0.03,135,Wunderground v.1.15,2013-02-21 17:44:00,
2013-02-21 09:49:00,43.1,38.3,30.06,West,271,11.0,19.0,83,0.00,,,0.03,148,Wunderground v.1.15,2013-02-21 17:49:00,
2013-02-21 09:54:00,43.1,38.3,30.06,WNW,285,16.0,26.0,83,0.00,,,0.03,171,Wunderground v.1.15,2013-02-21 17:54:00,
2013-02-21 09:59:00,43.0,38.2,30.06,SW,231,13.0,26.0,83,0.00,,,0.03,243,Wunderground v.1.15,2013-02-21 17:59:00,
2013-02-21 10:04:00,43.2,38.4,30.07,West,263,19.0,22.0,83,0.00,,,0.03,257,Wunderground v.1.15,2013-02-21 18:04:00,
2013-02-21 10:09:00,43.2,38.4,30.07,West,259,10.0,22.0,83,0.00,,,0.03,269,Wunderground v.1.15,2013-02-21 18:09:00,
2013-02-21 10:14:00,43.2,38.4,30.07,West,268,14.0,20.0,83,0.00,,,0.03,188,Wunderground v.1.15,2013-02-21 18:14:00,
2013-02-21 10:19:00,43.2,38.4,30.07,WSW,248,8.0,20.0,83,0.00,,,0.03,114,Wunderground v.1.15,2013-02-21 18:19:00,
2013-02-21 10:24:00,43.1,38.6,30.07,WSW,238,9.0,14.0,84,0.00,,,0.03,149,Wunderground v.1.15,2013-02-21 18:24:00,
2013-02-21 10:29:00,43.1,38.6,30.06,WSW,242,8.0,17.0,84,0.00,,,0.03,151,Wunderground v.1.15,2013-02-21 18:29:00,
2013-02-21 10:34:00,43.3,38.8,30.06,West,279,6.0,18.0,84,0.00,,,0.03,265,Wunderground v.1.15,2013-02-21 18:34:00,
2013-02-21 10:39:00,43.3,38.5,30.06,SW,224,10.0,23.0,83,0.00,,,0.03,251,Wunderground v.1.15,2013-02-21 18:39:00,
2013-02-21 10:44:00,43.3,38.5,30.06,West,271,9.0,25.0,83,0.00,,,0.03,216,Wunderground v.1.15,2013-02-21 18:44:00,
2013-02-21 10:49:00,43.2,38.4,30.07,West,270,9.0,25.0,83,0.00,,,0.03,125,Wunderground v.1.15,2013-02-21 18:49:00,
2013-02-21 10:54:00,43.1,38.3,30.07,WSW,240,14.0,24.0,83,0.00,,,0.03,105,Wunderground v.1.15,2013-02-21 18:54:00,
2013-02-21 10:59:00,43.0,38.2,30.07,West,262,7.0,24.0,83,0.00,,,0.03,79,Wunderground v.1.15,2013-02-21 18:59:00,
2013-02-21 11:04:00,43.1,38.3,30.07,West,266,14.0,21.0,83,0.00,,,0.03,95,Wunderground v.1.15,2013-02-21 19:04:00,
2013-02-21 11:09:00,43.1,38.6,30.07,WSW,257,12.0,21.0,84,0.00,,,0.03,67,Wunderground v.1.15,2013-02-21 19:09:00,
2013-02-21 11:14:00,43.0,38.5,30.07,West,266,17.0,19.0,84,0.00,,,0.03,74,Wunderground v.1.15,2013-02-21 19:14:00,
2013-02-21 11:19:00,42.8,38.3,30.07,West,271,16.0,21.0,84,0.00,,,0.03,83,Wunderground v.1.15,2013-02-21 19:19:00,
2013-02-21 11:24:00,42.8,38.3,30.07,West,275,9.0,20.0,84,0.00,,,0.03,128,Wunderground v.1.15,2013-02-21 19:24:00,
2013-02-21 11:29:00,42.9,38.7,30.06,West,265,14.0,23.0,85,0.00,,,0.03,178,Wunderground v.1.15,2013-02-21 19:29:00,
2013-02-21 11:34:00,42.9,38.4,30.06,SW,220,10.0,22.0,84,0.00,,,0.03,229,Wunderground v.1.15,2013-02-21 19:34:00,
2013-02-21 11:39:00,42.9,38.1,30.06,WNW,300,9.0,24.0,83,0.00,,,0.03,190,Wunderground v.1.15,2013-02-21 19:39:00,
2013-02-21 11:44:00,42.9,38.4,30.06,West,272,26.0,30.0,84,0.00,,,0.03,250,Wunderground v.1.15,2013-02-21 19:44:00,
2013-02-21 11:49:00,43.0,38.5,30.06,WSW,242,10.0,30.0,84,0.00,,,0.03,211,Wunderground v.1.15,2013-02-21 19:49:00,
2013-02-21 11:54:00,43.1,38.3,30.06,West,277,11.0,23.0,83,0.00,,,0.03,200,Wunderground v.1.15,2013-02-21 19:54:00,
2013-02-21 11:59:00,43.1,38.3,30.06,WSW,241,15.0,27.0,83,0.00,,,0.03,223,Wunderground v.1.15,2013-02-21 19:59:00,
2013-02-21 12:04:00,43.1,38.3,30.06,WSW,257,9.0,25.0,83,0.00,,,0.03,223,Wunderground v.1.15,2013-02-21 20:04:00,
2013-02-21 12:09:00,43.2,38.4,30.06,West,277,9.0,25.0,83,0.00,,,0.03,234,Wunderground v.1.15,2013-02-21 20:09:00,
2013-02-21 12:14:00,43.4,38.6,30.07,West,271,16.0,19.0,83,0.00,,,0.03,257,Wunderground v.1.15,2013-02-21 20:14:00,
2013-02-21 12:19:00,43.4,38.3,30.07,SW,236,11.0,19.0,82,0.00,,,0.03,188,Wunderground v.1.15,2013-02-21 20:19:00,
2013-02-21 12:24:00,43.4,38.3,30.07,West,264,16.0,21.0,82,0.00,,,0.03,181,Wunderground v.1.15,2013-02-21 20:24:00,
2013-02-21 12:29:00,43.4,38.3,30.06,West,272,7.0,23.0,82,0.00,,,0.03,153,Wunderground v.1.15,2013-02-21 20:29:00,
2013-02-21 12:34:00,43.4,38.3,30.06,SW,234,15.0,22.0,82,0.00,,,0.03,171,Wunderground v.1.15,2013-02-21 20:34:00,
2013-02-21 12:39:00,43.4,38.3,30.06,SW,221,13.0,22.0,82,0.00,,,0.03,162,Wunderground v.1.15,2013-02-21 20:39:00,
2013-02-21 12:44:00,43.3,38.2,30.06,WNW,284,7.0,21.0,82,0.00,,,0.03,84,Wunderground v.1.15,2013-02-21 20:44:00,
2013-02-21 12:49:00,43.2,38.1,30.06,West,262,10.0,21.0,82,0.00,,,0.03,77,Wunderground v.1.15,2013-02-21 20:49:00,
2013-02-21 12:54:00,43.1,38.0,30.06,WSW,252,16.0,16.0,82,0.00,,,0.03,109,Wunderground v.1.15,2013-02-21 20:54:00,
2013-02-21 12:59:00,43.0,37.9,30.06,WSW,257,8.0,18.0,82,0.00,,,0.03,155,Wunderground v.1.15,2013-02-21 20:59:00,
2013-02-21 13:04:00,43.1,38.0,30.06,WNW,292,11.0,15.0,82,0.00,,,0.03,158,Wunderground v.1.15,2013-02-21 21:04:00,
2013-02-21 13:09:00,43.2,38.1,30.06,West,267,10.0,16.0,82,0.00,,,0.03,81,Wunderground v.1.15,2013-02-21 21:09:00,
2013-02-21 13:14:00,43.1,38.3,30.05,West,264,11.0,14.0,83,0.00,,,0.03,91,Wunderground v.1.15,2013-02-21 21:14:00,
2013-02-21 13:19:00,43.0,37.9,30.05,WNW,290,10.0,18.0,82,0.00,,,0.03,63,Wunderground v.1.15,2013-02-21 21:19:00,
2013-02-21 13:24:00,43.0,38.2,30.05,SW,224,5.0,15.0,83,0.00,,,0.03,114,Wunderground v.1.15,2013-02-21 21:24:00,
2013-02-21 13:29:00,42.9,38.1,30.05,West,273,11.0,20.0,83,0.00,,,0.03,72,Wunderground v.1.15,2013-02-21 21:29:00,
2013-02-21 13:34:00,42.7,38.2,30.05,West,266,8.0,17.0,84,0.00,,,0.03,83,Wunderground v.1.15,2013-02-21 21:34:00,
2013-02-21 13:39:00,42.7,38.8,30.04,West,265,15.0,17.0,86,0.00,,,0.03,98,Wunderground v.1.15,2013-02-21 21:39:00,
2013-02-21 13:44:00,42.5,38.3,30.04,West,269,7.0,18.0,85,0.00,,,0.03,132,Wunderground v.1.15,2013-02-21 21:44:00,
2013-02-21 13:49:00,42.6,38.7,30.04,WSW,244,8.0,18.0,86,0.00,,,0.03,144,Wunderground v.1.15,2013-02-21 21:49:00,
2013-02-21 13:54:00,42.6,38.7,30.03,West,263,7.0,17.0,86,0.00,,,0.03,183,Wunderground v.1.15,2013-02-21 21:54:00,
2013-02-21 13:59:00,42.7,39.1,30.04,West,261,10.0,17.0,87,0.00,,,0.03,155,Wunderground v.1.15,2013-02-21 21:59:00,
2013-02-21 14:04:00,42.7,38.8,30.04,SW,234,11.0,21.0,86,0.00,,,0.03,107,Wunderground v.1.15,2013-02-21 22:04:00,
2013-02-21 14:09:00,42.8,39.2,30.04,West,265,9.0,21.0,87,0.00,,,0.03,98,Wunderground v.1.15,2013-02-21 22:09:00,
2013-02-21 14:14:00,42.8,38.9,30.04,West,266,4.0,19.0,86,0.00,,,0.03,137,Wunderground v.1.15,2013-02-21 22:14:00,
2013-02-21 14:19:00,43.1,39.2,30.04,SW,223,15.0,20.0,86,0.00,,,0.03,148,Wunderground v.1.15,2013-02-21 22:19:00,
2013-02-21 14:24:00,43.3,39.7,30.03,WSW,257,11.0,15.0,87,0.00,,,0.03,163,Wunderground v.1.15,2013-02-21 22:24:00,
2013-02-21 14:29:00,43.4,39.5,30.03,WSW,253,15.0,18.0,86,0.00,,,0.03,169,Wunderground v.1.15,2013-02-21 22:29:00,
2013-02-21 14:34:00,43.3,39.4,30.03,West,281,10.0,17.0,86,0.00,,,0.03,127,Wunderground v.1.15,2013-02-21 22:34:00,
2013-02-21 14:39:00,43.3,39.4,30.03,West,259,11.0,18.0,86,0.00,,,0.03,95,Wunderground v.1.15,2013-02-21 22:39:00,
2013-02-21 14:44:00,43.3,39.4,30.03,SW,229,11.0,15.0,86,0.00,,,0.03,105,Wunderground v.1.15,2013-02-21 22:44:00,
2013-02-21 14:49:00,43.4,39.5,30.04,West,276,6.0,16.0,86,0.00,,,0.03,83,Wunderground v.1.15,2013-02-21 22:49:00,
2013-02-21 14:54:00,43.4,39.5,30.04,West,272,7.0,14.0,86,0.00,,,0.03,104,Wunderground v.1.15,2013-02-21 22:54:00,
2013-02-21 14:59:00,43.5,39.6,30.04,West,268,8.0,15.0,86,0.00,,,0.03,105,Wunderground v.1.15,2013-02-21 22:59:00,
2013-02-21 15:04:00,43.6,39.4,30.04,WSW,240,6.0,12.0,85,0.00,,,0.03,90,Wunderground v.1.15,2013-02-21 23:04:00,
2013-02-21 15:09:00,43.7,39.5,30.04,SW,235,5.0,17.0,85,0.00,,,0.03,70,Wunderground v.1.15,2013-02-21 23:09:00,
2013-02-21 15:14:00,43.8,39.6,30.04,SW,233,7.0,17.0,85,0.00,,,0.03,114,Wunderground v.1.15,2013-02-21 23:14:00,
2013-02-21 15:19:00,43.8,39.3,30.04,West,269,6.0,17.0,84,0.00,,,0.03,76,Wunderground v.1.15,2013-02-21 23:19:00,
2013-02-21 15:24:00,43.9,39.7,30.04,West,261,6.0,9.0,85,0.00,,,0.03,47,Wunderground v.1.15,2013-02-21 23:24:00,
2013-02-21 15:29:00,43.7,39.2,30.04,West,278,8.0,20.0,84,0.00,,,0.03,58,Wunderground v.1.15,2013-02-21 23:29:00,
2013-02-21 15:34:00,43.7,39.2,30.04,West,261,9.0,15.0,84,0.00,,,0.03,67,Wunderground v.1.15,2013-02-21 23:34:00,
2013-02-21 15:39:00,43.7,39.2,30.04,West,261,8.0,16.0,84,0.00,,,0.03,93,Wunderground v.1.15,2013-02-21 23:39:00,
2013-02-21 15:44:00,43.9,39.4,30.04,West,265,8.0,12.0,84,0.00,,,0.03,83,Wunderground v.1.15,2013-02-21 23:44:00,
2013-02-21 15:49:00,43.9,39.4,30.04,West,277,12.0,15.0,84,0.00,,,0.03,77,Wunderground v.1.15,2013-02-21 23:49:00,
2013-02-21 15:54:00,43.9,39.4,30.04,West,267,11.0,12.0,84,0.00,,,0.03,70,Wunderground v.1.15,2013-02-21 23:54:00,
2013-02-21 15:59:00,44.0,39.5,30.04,WSW,254,7.0,14.0,84,0.00,,,0.03,44,Wunderground v.1.15,2013-02-21 23:59:00,
2013-02-21 16:04:00,43.8,39.3,30.04,West,266,8.0,16.0,84,0.00,,,0.03,30,Wunderground v.1.15,2013-02-22 00:04:00,
2013-02-21 16:09:00,43.8,39.3,30.04,West,273,7.0,16.0,84,0.00,,,0.03,26,Wunderground v.1.15,2013-02-22 00:09:00,
2013-02-21 16:14:00,43.9,39.7,30.04,WNW,288,3.0,13.0,85,0.00,,,0.03,23,Wunderground v.1.15,2013-02-22 00:14:00,
2013-02-21 16:19:00,44.0,39.8,30.04,West,261,9.0,16.0,85,0.00,,,0.03,18,Wunderground v.1.15,2013-02-22 00:19:00,
2013-02-21 16:24:00,44.1,39.9,30.04,West,275,14.0,15.0,85,0.00,,,0.03,16,Wunderground v.1.15,2013-02-22 00:24:00,
2013-02-21 16:29:00,44.2,39.7,30.04,West,279,14.0,21.0,84,0.00,,,0.03,16,Wunderground v.1.15,2013-02-22 00:29:00,
2013-02-21 16:34:00,44.3,39.8,30.04,West,273,8.0,13.0,84,0.00,,,0.03,16,Wunderground v.1.15,2013-02-22 00:34:00,
2013-02-21 16:39:00,44.3,39.8,30.04,WSW,248,8.0,13.0,84,0.00,,,0.03,11,Wunderground v.1.15,2013-02-22 00:39:00,
2013-02-21 16:44:00,44.4,39.9,30.04,West,273,6.0,17.0,84,0.00,,,0.03,12,Wunderground v.1.15,2013-02-22 00:44:00,
2013-02-21 16:49:00,44.5,40.0,30.04,West,265,13.0,17.0,84,0.00,,,0.03,9,Wunderground v.1.15,2013-02-22 00:49:00,
2013-02-21 16:54:00,44.5,40.0,30.03,West,266,10.0,14.0,84,0.00,,,0.03,9,Wunderground v.1.15,2013-02-22 00:54:00,
2013-02-21 16:59:00,44.5,40.0,30.04,SSW,196,13.0,18.0,84,0.00,,,0.03,7,Wunderground v.1.15,2013-02-22 00:59:00,
2013-02-21 17:04:00,44.6,40.1,30.04,West,271,7.0,16.0,84,0.00,,,0.03,5,Wunderground v.1.15,2013-02-22 01:04:00,
2013-02-21 17:09:00,44.6,40.1,30.04,West,273,10.0,16.0,84,0.00,,,0.03,5,Wunderground v.1.15,2013-02-22 01:09:00,
2013-02-21 17:14:00,44.6,40.1,30.04,West,265,8.0,15.0,84,0.00,,,0.03,0,Wunderground v.1.15,2013-02-22 01:14:00,
2013-02-21 17:19:00,44.6,40.1,30.05,WSW,257,5.0,15.0,84,0.00,,,0.03,0,Wunderground v.1.15,2013-02-22 01:19:00,
2013-02-21 17:24:00,44.6,40.1,30.05,West,277,10.0,13.0,84,0.00,,,0.03,0,Wunderground v.1.15,2013-02-22 01:24:00,
2013-02-21 17:29:00,44.5,40.0,30.05,West,269,8.0,16.0,84,0.00,,,0.03,0,Wunderground v.1.15,2013-02-22 01:29:00,
2013-02-21 17:34:00,44.6,40.1,30.06,West,264,11.0,15.0,84,0.00,,,0.03,0,Wunderground v.1.15,2013-02-22 01:34:00,
2013-02-21 17:39:00,44.6,40.1,30.06,WSW,253,9.0,15.0,84,0.00,,,0.03,0,Wunderground v.1.15,2013-02-22 01:39:00,
2013-02-21 17:44:00,44.6,40.4,30.06,West,280,5.0,14.0,85,0.00,,,0.03,0,Wunderground v.1.15,2013-02-22 01:44:00,
2013-02-21 17:49:00,44.6,40.4,30.06,SSW,209,8.0,14.0,85,0.00,,,0.03,0,Wunderground v.1.15,2013-02-22 01:49:00,
2013-02-21 17:54:00,44.6,40.4,30.07,SSW,213,7.0,14.0,85,0.00,,,0.03,0,Wunderground v.1.15,2013-02-22 01:54:00,
2013-02-21 17:59:00,44.5,40.3,30.07,West,269,11.0,14.0,85,0.00,,,0.03,0,Wunderground v.1.15,2013-02-22 01:59:00,
2013-02-21 18:04:00,44.5,40.3,30.07,West,267,7.0,10.0,85,0.00,,,0.03,0,Wunderground v.1.15,2013-02-22 02:04:00,
2013-02-21 18:09:00,44.5,40.3,30.07,West,269,3.0,10.0,85,0.00,,,0.03,0,Wunderground v.1.15,2013-02-22 02:09:00,
2013-02-21 18:14:00,44.5,40.3,30.07,WSW,240,4.0,7.0,85,0.00,,,0.03,0,Wunderground v.1.15,2013-02-22 02:14:00,
2013-02-21 18:19:00,44.6,40.4,30.07,West,271,7.0,11.0,85,0.00,,,0.03,0,Wunderground v.1.15,2013-02-22 02:19:00,
2013-02-21 18:24:00,44.5,40.3,30.06,West,261,7.0,10.0,85,0.00,,,0.03,0,Wunderground v.1.15,2013-02-22 02:24:00,
2013-02-21 18:29:00,44.5,40.3,30.06,West,271,4.0,10.0,85,0.00,,,0.03,0,Wunderground v.1.15,2013-02-22 02:29:00,
2013-02-21 18:34:00,44.5,40.3,30.06,WSW,256,5.0,9.0,85,0.00,,,0.03,0,Wunderground v.1.15,2013-02-22 02:34:00,
2013-02-21 18:39:00,44.5,40.6,30.06,WSW,238,6.0,10.0,86,0.00,,,0.03,0,Wunderground v.1.15,2013-02-22 02:39:00,
2013-02-21 18:43:00,44.5,40.6,30.06,West,259,9.0,9.0,86,0.00,,,0.03,0,Wunderground v.1.15,2013-02-22 02:43:00,
2013-02-21 18:48:00,44.5,40.6,30.05,West,261,4.0,11.0,86,0.00,,,0.03,0,Wunderground v.1.15,2013-02-22 02:48:00,
2013-02-21 18:53:00,44.5,40.6,30.06,WSW,254,5.0,13.0,86,0.00,,,0.03,0,Wunderground v.1.15,2013-02-22 02:53:00,
2013-02-21 18:58:00,44.6,40.7,30.06,WSW,237,10.0,13.0,86,0.00,,,0.03,0,Wunderground v.1.15,2013-02-22 02:58:00,
2013-02-21 19:03:00,44.6,40.7,30.06,West,277,10.0,11.0,86,0.00,,,0.03,0,Wunderground v.1.15,2013-02-22 03:03:00,
2013-02-21 19:08:00,44.6,40.7,30.06,West,278,9.0,11.0,86,0.00,,,0.03,0,Wunderground v.1.15,2013-02-22 03:08:00,
2013-02-21 19:13:00,44.6,40.7,30.06,West,272,7.0,13.0,86,0.00,,,0.03,0,Wunderground v.1.15,2013-02-22 03:13:00,
2013-02-21 19:18:00,44.6,40.7,30.06,West,261,8.0,13.0,86,0.00,,,0.03,0,Wunderground v.1.15,2013-02-22 03:18:00,
2013-02-21 19:23:00,44.7,40.8,30.06,West,267,8.0,11.0,86,0.00,,,0.03,0,Wunderground v.1.15,2013-02-22 03:23:00,
2013-02-21 19:28:00,44.7,40.8,30.06,West,277,7.0,11.0,86,0.00,,,0.03,0,Wunderground v.1.15,2013-02-22 03:28:00,
2013-02-21 19:33:00,44.7,40.8,30.06,West,263,12.0,12.0,86,0.00,,,0.03,0,Wunderground v.1.15,2013-02-22 03:33:00,
2013-02-21 19:38:00,44.7,40.8,30.06,WSW,248,4.0,12.0,86,0.00,,,0.03,0,Wunderground v.1.15,2013-02-22 03:38:00,
2013-02-21 19:43:00,44.7,40.8,30.06,West,267,11.0,13.0,86,0.00,,,0.03,0,Wunderground v.1.15,2013-02-22 03:43:00,
2013-02-21 19:48:00,44.7,40.8,30.06,WSW,252,6.0,13.0,86,0.00,,,0.03,0,Wunderground v.1.15,2013-02-22 03:48:00,
2013-02-21 19:53:00,44.7,40.8,30.06,West,267,9.0,12.0,86,0.00,,,0.03,0,Wunderground v.1.15,2013-02-22 03:53:00,
2013-02-21 19:58:00,44.7,40.8,30.05,West,267,8.0,13.0,86,0.00,,,0.03,0,Wunderground v.1.15,2013-02-22 03:58:00,
2013-02-21 20:03:00,44.7,40.8,30.05,West,259,7.0,12.0,86,0.00,,,0.03,0,Wunderground v.1.15,2013-02-22 04:03:00,
2013-02-21 20:08:00,44.6,40.7,30.05,West,270,7.0,12.0,86,0.00,,,0.03,0,Wunderground v.1.15,2013-02-22 04:08:00,
2013-02-21 20:13:00,44.6,40.7,30.05,West,269,14.0,14.0,86,0.00,,,0.03,0,Wunderground v.1.15,2013-02-22 04:13:00,
2013-02-21 20:18:00,44.6,40.4,30.06,West,279,8.0,14.0,85,0.00,,,0.03,0,Wunderground v.1.15,2013-02-22 04:18:00,
2013-02-21 20:23:00,44.5,40.3,30.06,WSW,248,10.0,12.0,85,0.00,,,0.03,0,Wunderground v.1.15,2013-02-22 04:23:00,
2013-02-21 20:28:00,44.6,40.4,30.07,WSW,254,5.0,14.0,85,0.00,,,0.03,0,Wunderground v.1.15,2013-02-22 04:28:00,
2013-02-21 20:33:00,44.6,40.4,30.07,West,273,3.0,12.0,85,0.00,,,0.03,0,Wunderground v.1.15,2013-02-22 04:33:00,
2013-02-21 20:38:00,44.6,40.4,30.07,SW,236,5.0,12.0,85,0.00,,,0.03,0,Wunderground v.1.15,2013-02-22 04:38:00,
2013-02-21 20:43:00,44.6,40.4,30.07,WSW,250,12.0,13.0,85,0.00,,,0.03,0,Wunderground v.1.15,2013-02-22 04:43:00,
2013-02-21 20:48:00,44.6,40.4,30.07,West,267,6.0,13.0,85,0.00,,,0.03,0,Wunderground v.1.15,2013-02-22 04:48:00,
2013-02-21 20:53:00,44.6,40.4,30.08,West,267,6.0,13.0,85,0.00,,,0.03,0,Wunderground v.1.15,2013-02-22 04:53:00,
2013-02-21 20:58:00,44.6,40.4,30.08,WNW,300,4.0,13.0,85,0.00,,,0.03,0,Wunderground v.1.15,2013-02-22 04:58:00,
2013-02-21 21:00:00,44.6,40.4,30.08,West,275,8.0,13.0,85,0.00,,,0.03,0,Wunderground v.1.15,2013-02-22 05:00:00,
2013-02-21 21:05:00,44.6,40.4,30.08,West,273,6.0,11.0,85,0.00,,,0.03,0,Wunderground v.1.15,2013-02-22 05:05:00,
2013-02-21 21:10:00,44.6,40.4,30.08,West,271,6.0,13.0,85,0.00,,,0.03,0,Wunderground v.1.15,2013-02-22 05:10:00,
2013-02-21 21:15:00,44.6,40.4,30.08,West,276,3.0,12.0,85,0.00,,,0.03,0,Wunderground v.1.15,2013-02-22 05:15:00,
2013-02-21 21:20:00,44.6,40.4,30.08,NW,309,2.0,12.0,85,0.00,,,0.03,0,Wunderground v.1.15,2013-02-22 05:20:00,
2013-02-21 21:25:00,44.6,40.4,30.08,NW,312,4.0,13.0,85,0.00,,,0.03,0,Wunderground v.1.15,2013-02-22 05:25:00,
2013-02-21 21:30:00,44.5,40.3,30.08,WSW,246,5.0,13.0,85,0.00,,,0.03,0,Wunderground v.1.15,2013-02-22 05:30:00,
2013-02-21 21:35:00,44.4,39.9,30.08,West,269,4.0,11.0,84,0.00,,,0.03,0,Wunderground v.1.15,2013-02-22 05:35:00,
2013-02-21 21:40:00,44.4,39.9,30.09,NW,326,6.0,11.0,84,0.00,,,0.03,0,Wunderground v.1.15,2013-02-22 05:40:00,
2013-02-21 21:45:00,44.3,39.8,30.09,West,273,8.0,11.0,84,0.00,,,0.03,0,Wunderground v.1.15,2013-02-22 05:45:00,
2013-02-21 21:50:00,44.3,40.1,30.09,West,259,9.0,11.0,85,0.00,,,0.03,0,Wunderground v.1.15,2013-02-22 05:50:00,
2013-02-21 21:55:00,44.3,39.8,30.09,NW,313,6.0,10.0,84,0.00,,,0.03,0,Wunderground v.1.15,2013-02-22 05:55:00,
2013-02-21 22:00:00,44.3,39.8,30.09,WSW,248,5.0,10.0,84,0.00,,,0.03,0,Wunderground v.1.15,2013-02-22 06:00:00,
2013-02-21 22:05:00,44.2,39.7,30.09,NW,316,1.0,10.0,84,0.00,,,0.03,0,Wunderground v.1.15,2013-02-22 06:05:00,
2013-02-21 22:10:00,44.2,39.7,30.08,WSW,257,6.0,10.0,84,0.00,,,0.03,0,Wunderground v.1.15,2013-02-22 06:10:00,
2013-02-21 22:15:00,44.2,40.0,30.08,West,281,8.0,10.0,85,0.00,,,0.03,0,Wunderground v.1.15,2013-02-22 06:15:00,
2013-02-21 22:20:00,44.2,40.0,30.08,WNW,290,3.0,10.0,85,0.00,,,0.03,0,Wunderground v.1.15,2013-02-22 06:20:00,
2013-02-21 22:25:00,44.2,39.7,30.08,West,277,2.0,9.0,84,0.00,,,0.03,0,Wunderground v.1.15,2013-02-22 06:25:00,
2013-02-21 22:30:00,44.2,39.7,30.08,West,275,4.0,9.0,84,0.00,,,0.03,0,Wunderground v.1.15,2013-02-22 06:30:00,
2013-02-21 22:35:00,44.3,40.1,30.08,West,276,2.0,7.0,85,0.00,,,0.03,0,Wunderground v.1.15,2013-02-22 06:35:00,
2013-02-21 22:40:00,44.3,40.1,30.08,West,268,5.0,8.0,85,0.00,,,0.03,0,Wunderground v.1.15,2013-02-22 06:40:00,
2013-02-21 22:45:00,44.4,40.2,30.08,West,270,9.0,10.0,85,0.00,,,0.03,0,Wunderground v.1.15,2013-02-22 06:45:00,
2013-02-21 22:50:00,44.5,40.3,30.07,West,261,9.0,13.0,85,0.00,,,0.03,0,Wunderground v.1.15,2013-02-22 06:50:00,
2013-02-21 22:55:00,44.6,40.4,30.07,West,260,11.0,12.0,85,0.00,,,0.03,0,Wunderground v.1.15,2013-02-22 06:55:00,
2013-02-21 23:00:00,44.7,40.5,30.07,WSW,253,4.0,14.0,85,0.00,,,0.03,0,Wunderground v.1.15,2013-02-22 07:00:00,
2013-02-21 23:04:00,44.6,40.4,30.07,SW,230,9.0,12.0,85,0.00,,,0.03,0,Wunderground v.1.15,2013-02-22 07:04:00,
2013-02-21 23:09:00,44.6,40.4,30.07,West,261,7.0,14.0,85,0.00,,,0.03,0,Wunderground v.1.15,2013-02-22 07:09:00,
2013-02-21 23:14:00,44.6,40.4,30.07,WSW,242,8.0,16.0,85,0.00,,,0.03,0,Wunderground v.1.15,2013-02-22 07:14:00,
2013-02-21 23:19:00,44.6,40.4,30.07,West,273,7.0,16.0,85,0.00,,,0.03,0,Wunderground v.1.15,2013-02-22 07:19:00,
2013-02-21 23:24:00,44.6,40.4,30.07,SSW,211,14.0,14.0,85,0.00,,,0.03,0,Wunderground v.1.15,2013-02-22 07:24:00,
2013-02-21 23:29:00,44.5,40.6,30.07,SSW,198,10.0,16.0,86,0.00,,,0.03,0,Wunderground v.1.15,2013-02-22 07:29:00,
2013-02-21 23:34:00,44.5,40.6,30.07,West,275,5.0,14.0,86,0.00,,,0.03,0,Wunderground v.1.15,2013-02-22 07:34:00,
2013-02-21 23:39:00,44.5,40.6,30.07,WSW,255,6.0,14.0,86,0.00,,,0.03,0,Wunderground v.1.15,2013-02-22 07:39:00,
2013-02-21 23:44:00,44.4,40.5,30.07,West,265,8.0,14.0,86,0.00,,,0.03,0,Wunderground v.1.15,2013-02-22 07:44:00,
2013-02-21 23:49:00,44.4,40.5,30.07,WSW,251,5.0,14.0,86,0.00,,,0.03,0,Wunderground v.1.15,2013-02-22 07:49:00,
2013-02-21 23:54:00,44.3,40.4,30.07,SW,219,9.0,11.0,86,0.00,,,0.00,0,Wunderground v.1.15,2013-02-22 07:54:00,
2013-02-21 23:59:00,44.4,40.5,30.07,SW,223,9.0,14.0,86,0.00,,,0.00,0,Wunderground v.1.15,2013-02-22 07:59:00,